HST 1 20580U 90037B 26072.13994533 .00008230 00000+0 27135-3 0 9991 2 20580 28.4723 16.4622 0001799 159.6118 200.4550 15.29543468773843 POLAR 1 23802U 96013A 26072.52935318 .00000230 00000+0 00000+0 0 9990 2 23802 79.7558 228.1473 6373426 212.3300 84.2673 1.29845770143615 SWAS 1 25560U 98071A 26072.51238747 .00004091 00000+0 26521-3 0 9999 2 25560 69.8954 114.1197 0004345 6.0808 354.0408 15.08921829482837 CXO 1 25867U 99040B 26074.17591503 .00001098 00000+0 00000+0 0 9996 2 25867 54.6015 119.5309 7987924 310.6410 0.3950 0.37797975 16963 XMM-NEWTON 1 25989U 99066A 26073.60830429 .00000188 00000+0 00000+0 0 9998 2 25989 64.9635 284.2156 4708982 66.5664 0.0242 0.50129949 22525 TERRA 1 25994U 99068A 26072.63802337 .00000529 00000+0 11683-3 0 9997 2 25994 97.9586 125.9218 0002933 142.4605 18.8470 14.61019551395651 CLUSTER II-FM7 (SAMBA) 1 26410U 00041A 26072.18498853 .00009157 00000+0 00000+0 0 9991 2 26410 149.0994 35.5717 8921020 251.7870 0.4837 0.44824009 19879 CLUSTER II-FM8 (TANGO) 1 26464U 00045B 26049.06287974 .00004776 00000+0 00000+0 0 9997 2 26464 149.0711 33.5376 8890045 249.4570 359.4916 0.44405995 19769 ODIN 1 26702U 01007A 26072.06494523 .00050260 00000+0 64426-3 0 9992 2 26702 97.4074 108.2494 0004831 135.3299 224.8347 15.59005932374368 TIMED 1 26998U 01055B 26072.39331273 .00001759 00000+0 16426-3 0 9996 2 26998 74.0663 67.8646 0002991 270.8538 89.2304 14.95035844316507 CORIOLIS 1 27640U 03001A 26072.43437711 .00000173 00000+0 10188-3 0 9991 2 27640 98.7160 80.7708 0014927 126.3399 233.9157 14.19914387200636 SORCE 1 27651U 03004A 26072.48626655 .00004269 00000+0 32078-3 0 9990 2 27651 39.9904 87.4589 0015654 84.4230 275.8349 15.03129458257493 MOST 1 27843U 03031D 26072.47105396 .00000127 00000+0 78358-4 0 9997 2 27843 98.7083 81.5206 0010145 162.9361 197.2159 14.21300524177115 SCISAT 1 1 27858U 03036A 26072.26238245 .00001078 00000+0 14267-3 0 9999 2 27858 73.9328 1.9170 0005819 88.7671 271.4172 14.81321049217245 SWIFT 1 28485U 04047A 26072.63927365 .00049576 00000+0 58234-3 0 9995 2 28485 20.5519 197.1376 0004429 68.9586 291.1332 15.59650813171885 HINODE (SOLAR-B) 1 29479U 06041A 26072.52361498 .00000826 00000+0 15082-3 0 9991 2 29479 98.0620 90.0657 0016469 228.6272 131.3518 14.68481017 40837 SHIJIAN-6 02A (SJ-6 02A) 1 29505U 06046A 26072.60637274 .00008155 00000+0 43073-3 0 9997 2 29505 97.6495 112.9775 0004794 104.4331 255.7434 15.15765287 57789 SHIJIAN-6 02B (SJ-6 02B) 1 29506U 06046B 26072.63114091 .00002597 00000+0 20767-3 0 9997 2 29506 97.7075 102.3341 0013875 31.0545 329.1496 15.01021044 56402 FGRST (GLAST) 1 33053U 08029A 26072.41675084 .00004410 00000+0 16647-3 0 9990 2 33053 25.5809 149.1877 0007719 276.4041 83.5618 15.23365117981216 SDO 1 36395U 10005A 26072.03113264 -.00000061 00000+0 00000+0 0 9995 2 36395 34.4479 87.7975 0000089 92.2732 259.9492 1.00275372 59094 CRYOSAT 2 1 36508U 10013A 26072.62723324 .00000330 00000+0 81275-4 0 9995 2 36508 92.0230 254.1429 0002128 91.4302 268.7149 14.51901365844210 X-SAT 1 37389U 11015C 26072.60468494 -.00000020 00000+0 89925-5 0 9996 2 37389 98.3436 54.2255 0012810 264.0894 95.8827 14.25173939774060 GCOM-W1 (SHIZUKU) 1 38337U 12025A 26072.32683833 .00000735 00000+0 17316-3 0 9992 2 38337 98.2056 14.3330 0001437 73.3853 88.1965 14.57104555735070 NUSTAR 1 38358U 12031A 26072.66667824 .00011136 00000+0 65178-3 0 9997 2 38358 6.0282 30.1168 0006919 136.2396 62.1571 15.07785355 1303 NEOSSAT 1 39089U 13009D 26072.45912033 .00000242 00000+0 98224-4 0 9992 2 39089 98.4145 254.7746 0011282 166.2716 193.8779 14.35787902683007 BRITE-AUSTRIA 1 39091U 13009F 26072.43554912 .00000279 00000+0 10965-3 0 9996 2 39091 98.3960 254.2493 0010590 160.2337 199.9262 14.36498727683304 IRIS 1 39197U 13033A 26072.53371259 .00001719 00000+0 20385-3 0 9999 2 39197 97.9397 272.0809 0023231 272.1475 87.7080 14.85660122686175 HISAKI (SPRINT-A) 1 39253U 13049A 26072.16379401 .00000127 00000+0 84020-4 0 9994 2 39253 29.7220 348.1967 0136599 318.2495 40.7723 13.55531070618388 CASSIOPE 1 39265U 13055A 26072.57212961 .00042409 -44743-6 50790-3 0 9991 2 39265 80.9194 182.2751 0314149 23.2996 338.2116 15.19081342653122 STSAT-3 1 39422U 13066G 26072.60947212 .00003419 00000+0 26430-3 0 9998 2 39422 97.6063 44.1560 0011114 0.7097 359.4141 15.02119199669853 SWARM B 1 39451U 13067A 26072.59887412 .00005242 00000+0 19136-3 0 9995 2 39451 87.7489 11.3053 0003650 84.2853 275.8813 15.27902077668648 SWARM A 1 39452U 13067B 26072.59955288 .00012590 00000+0 23325-3 0 9992 2 39452 87.3287 91.7088 0003148 94.8600 265.3020 15.48847405691444 SWARM C 1 39453U 13067C 26072.59944396 .00012645 00000+0 23427-3 0 9995 2 39453 87.3285 90.2901 0003158 94.9460 265.2160 15.48848179691406 BRITE-CA1 (TORONTO) 1 40020U 14033L 26072.29858598 .00001667 00000+0 25851-3 0 9991 2 40020 97.9572 203.0919 0078035 223.2168 136.2900 14.72476377628104 OCO 2 1 40059U 14035A 26072.56726556 .00000673 00000+0 15949-3 0 9996 2 40059 98.1997 15.3569 0001293 94.8377 265.2969 14.57099309622124 BRITE-PL2 (HEWELIUSZ) 1 40119U 14049B 26072.28931890 .00002241 00000+0 21422-3 0 9992 2 40119 97.8979 183.6403 0015192 70.1073 290.1782 14.94202995627129 MMS 1 1 40482U 15011A 26072.66667824 -.00001993 00000+0 00000+0 0 9999 2 40482 70.7693 350.1277 8404463 165.2807 275.7597 0.28300959 1363 MMS 2 1 40483U 15011B 26072.66667824 -.00001993 00000+0 00000+0 0 9990 2 40483 70.7695 350.1299 8405195 165.2868 275.7435 0.28300984 1369 MMS 3 1 40484U 15011C 26072.66667824 -.00001993 00000+0 00000+0 0 9991 2 40484 70.7718 350.1347 8404529 165.2758 275.7734 0.28294291 1363 MMS 4 1 40485U 15011D 26072.66667824 -.00001993 00000+0 00000+0 0 9992 2 40485 70.7699 350.1299 8404035 165.2831 275.7594 0.28294292 1367 ASTROSAT 1 40930U 15052A 26072.22091466 .00002215 00000+0 18875-3 0 9997 2 40930 5.9964 126.0257 0007470 104.7462 255.3494 14.82310237565566 DAMPE 1 41173U 15078A 26072.59242389 .00002065 00000+0 72465-4 0 9996 2 41173 97.4589 77.5993 0013692 59.0764 301.1820 15.30515766569927 PISAT 1 41784U 16059B 26072.43586940 .00001312 00000+0 23146-3 0 9996 2 41784 97.8192 77.0153 0029840 149.0044 211.2931 14.68784397505680 HXMT (HUIYAN) 1 42758U 17034A 26072.26616812 .00006773 00000+0 33844-3 0 9997 2 42758 43.0161 356.7891 0033232 257.7062 102.0065 15.17520938483082 FLYING LAPTOP 1 42831U 17042G 26072.64576269 .00002390 00000+0 19325-3 0 9990 2 42831 97.4280 232.1434 0019567 83.0067 277.3382 15.00545800472127 ZHANGHENG 1-01 (CSES-1) 1 43194U 18015C 26072.60231025 .00011320 00000+0 51011-3 0 9999 2 43194 97.6757 236.4090 0015084 230.3433 129.6472 15.21119692450113 SALSAT 1 46495U 20068K 26072.47071752 .00011094 00000+0 40525-3 0 9997 2 46495 97.8859 69.8211 0008092 280.4090 79.6236 15.28268439300739 IXPE 1 49954U 21121A 26072.66667824 .00020668 00000+0 11997-2 0 9990 2 49954 0.2307 319.8003 0007305 70.3084 184.8100 15.09275680 4881